Girona, Spain

8:05 AM CEST on September 26, 2016 (GMT +0200)
Girona

Weather History for LEGE - October, 2013

Change the Weather History Date:

Sunday, October 13, 2013

  Actual Average Record
Temperature  
Mean Temperature 60 °F -  
Max Temperature 74 °F 71 °F 82 °F (2011)
Min Temperature 45 °F 52 °F 45 °F (2013)
Degree Days  
Heating Degree Days 6    
Growing Degree Days 10 (Base 50)    
Moisture  
Dew Point 51 °F    
Average Humidity 77    
Maximum Humidity 100    
Minimum Humidity 43    
Precipitation  
Precipitation 0.00 in - - ()
Sea Level Pressure  
Sea Level Pressure 30.09 in    
Wind  
Wind Speed 1 mph ()    
Max Wind Speed 8 mph    
Max Gust Speed -    
Visibility 6.5 miles    
Events      
Averages and records for this station are not official NWS values.
T = Trace of Precipitation, MM = Missing Value Source: Averaged Metar Reports

Daily Weather History Graph

Daily Weather History Graph

Search for Another Location

Airport or City:

Trip Planner

Search our weather history database for the weather conditions in past years. The results will help you decide how hot, cold, wet, or windy it might be!

Date:

Astronomy

Oct. 13, 2013 Rise Set
Actual Time 7:59 AM CEST 7:10 PM CEST
Civil Twilight 7:31 AM CEST 7:38 PM CEST
Nautical Twilight 6:58 AM CEST 8:10 PM CEST
Astronomical Twilight 6:26 AM CEST 8:43 PM CEST
Moon 3:56 PM CEST (10/13) 1:46 AM CEST (10/13)
Length of Visible Light 12h 07m
Length of Day
11h 11m
Waxing Gibbous, 66% of the Moon is Illuminated
Oct 13
Waxing Gibbous
Oct 19
Full
Oct 27
Last Quarter
Nov 3
New
Nov 10
First Quarter

Hourly Weather History & Observations

Time (CEST) Temp. Dew Point Humidity Pressure Visibility Wind Dir Wind Speed Gust Speed Precip Events Conditions
12:30 AM 55.4 °F 51.8 °F 88% 30.09 in 6.2 mi Calm Calm - N/A   Partly Cloudy
1:00 AM 53.6 °F 51.8 °F 94% 30.09 in 6.2 mi Calm Calm - N/A   Partly Cloudy
1:30 AM 55.4 °F 50.0 °F 82% 30.09 in 6.2 mi Variable 1.2 mph - N/A   Partly Cloudy
2:00 AM 57 °F 48 °F 64% 30.08 in - WNW 3.5 mph - -  
2:00 AM 57.2 °F 48.2 °F 72% 30.09 in 6.2 mi WNW 3.5 mph - N/A   Partly Cloudy
2:30 AM 55.4 °F 50.0 °F 82% 30.09 in 6.2 mi SE 1.2 mph - N/A   Partly Cloudy
3:00 AM 53.6 °F 50.0 °F 88% 30.09 in 6.2 mi Calm Calm - N/A   Partly Cloudy
3:30 AM 51.8 °F 50.0 °F 94% 30.09 in 6.2 mi Calm Calm - N/A   Partly Cloudy
4:00 AM 51.8 °F 50.0 °F 94% 30.06 in 6.2 mi Calm Calm - N/A   Partly Cloudy
4:30 AM 50.0 °F 48.2 °F 94% 30.06 in 6.2 mi Calm Calm - N/A   Partly Cloudy
5:00 AM 50.0 °F 48.2 °F 94% 30.06 in 6.2 mi Calm Calm - N/A   Partly Cloudy
5:30 AM 50.0 °F 48.2 °F 94% 30.06 in 6.2 mi NE 2.3 mph - N/A   Partly Cloudy
6:00 AM 48.2 °F 48.2 °F 100% 30.06 in 6.2 mi Calm Calm - N/A   Partly Cloudy
6:30 AM 48.2 °F 46.4 °F 93% 30.09 in 6.2 mi Calm Calm - N/A   Partly Cloudy
7:30 AM 46.4 °F 44.6 °F 93% 30.09 in - Variable 1.2 mph - N/A   Clear
8:00 AM 46 °F 45 °F 95% 30.10 in 12 mi Calm Calm - -   Clear
8:00 AM 46.4 °F 44.6 °F 93% 30.09 in - Variable 1.2 mph - N/A   Clear
8:30 AM 46.4 °F 44.6 °F 93% 30.09 in - Calm Calm - N/A   Clear
9:00 AM 50.0 °F 48.2 °F 94% 30.12 in - Calm Calm - N/A   Clear
9:30 AM 51.8 °F 48.2 °F 88% 30.12 in - Calm Calm - N/A   Clear
10:00 AM 55.4 °F 48.2 °F 77% 30.12 in 6.2 mi Calm Calm - N/A   Partly Cloudy
10:30 AM 60.8 °F 50.0 °F 68% 30.12 in 6.2 mi Calm Calm - N/A   Partly Cloudy
11:00 AM 60.8 °F 50.0 °F 68% 30.12 in 6.2 mi Calm Calm - N/A   Partly Cloudy
11:30 AM 64.4 °F 50.0 °F 59% 30.12 in 6.2 mi Calm Calm - N/A   Partly Cloudy
12:00 PM 66.2 °F 50.0 °F 56% 30.12 in 6.2 mi Calm Calm - N/A   Partly Cloudy
12:30 PM 66.2 °F 48.2 °F 52% 30.12 in 6.2 mi South 3.5 mph - N/A   Partly Cloudy
1:00 PM 68.0 °F 44.6 °F 43% 30.09 in 6.2 mi Calm Calm - N/A   Partly Cloudy
1:30 PM 68.0 °F 48.2 °F 49% 30.09 in 6.2 mi Calm Calm - N/A   Partly Cloudy
2:00 PM 68.0 °F 48.2 °F 49% 30.09 in 6.2 mi SW 2.3 mph - N/A   Partly Cloudy
2:30 PM 69.8 °F 50.0 °F 49% 30.06 in 6.2 mi Calm Calm - N/A   Partly Cloudy
3:00 PM 71.6 °F 53.6 °F 53% 30.06 in 6.2 mi Calm Calm - N/A   Partly Cloudy
3:30 PM 71.6 °F 53.6 °F 53% 30.06 in 6.2 mi South 5.8 mph - N/A   Partly Cloudy
4:00 PM 69.8 °F 55.4 °F 60% 30.06 in 6.2 mi SE 8.1 mph - N/A   Scattered Clouds
4:30 PM 69.8 °F 55.4 °F 60% 30.06 in 6.2 mi South 8.1 mph - N/A   Scattered Clouds
5:00 PM 69.8 °F 57.2 °F 64% 30.06 in 6.2 mi South 8.1 mph - N/A   Scattered Clouds
5:30 PM 69.8 °F 57.2 °F 64% 30.06 in 6.2 mi South 8.1 mph - N/A   Partly Cloudy
6:00 PM 69.8 °F 57.2 °F 64% 30.06 in 6.2 mi South 8.1 mph - N/A   Partly Cloudy
6:30 PM 69.8 °F 57.2 °F 64% 30.06 in 6.2 mi South 8.1 mph - N/A   Partly Cloudy
7:00 PM 69.8 °F 57.2 °F 64% 30.06 in 6.2 mi South 8.1 mph - N/A   Partly Cloudy
7:30 PM 60.8 °F 55.4 °F 82% 30.09 in 6.2 mi NNE 4.6 mph - N/A   Scattered Clouds
8:00 PM 61 °F 56 °F 77% 30.10 in 12 mi NE 2.3 mph - -   Partly Cloudy
8:00 PM 60.8 °F 55.4 °F 82% 30.12 in 6.2 mi Variable 2.3 mph - N/A   Scattered Clouds
8:30 PM 60.8 °F 55.4 °F 82% 30.12 in 6.2 mi NNE 3.5 mph - N/A   Scattered Clouds
9:00 PM 60.8 °F 55.4 °F 82% 30.12 in 6.2 mi North 2.3 mph - N/A   Scattered Clouds
9:30 PM 59.0 °F 55.4 °F 88% 30.12 in 6.2 mi Variable 1.2 mph - N/A   Scattered Clouds
10:00 PM 59.0 °F 55.4 °F 88% 30.12 in 6.2 mi North 2.3 mph - N/A   Scattered Clouds
10:30 PM 57.2 °F 53.6 °F 88% 30.12 in 6.2 mi Calm Calm - N/A   Scattered Clouds
11:00 PM 57.2 °F 55.4 °F 94% 30.12 in 6.2 mi North 3.5 mph - N/A   Scattered Clouds
11:30 PM 57.2 °F 55.4 °F 94% 30.12 in 6.2 mi Calm Calm - N/A   Partly Cloudy